X  Close Skyet i løbet af dagen.
Conditions Temperature Feels Precipitation Wind Wind Direction UV index Pressure
17:00 partly-cloudy-night Let skyet 6° 1° - 8-14 m/s WSW WSW - 1012,8
18:00 clear-night Klart 5° 1° - 8-14 m/s WNW WNW - 1012,9
19:00 clear-night Klart 5° 0° - 8-14 m/s West West - 1013,0
20:00 partly-cloudy-night Let skyet 5° 0° - 8-14 m/s SW SW - 1013,0
21:00 partly-cloudy-night Skyet 5° 0° - 8-15 m/s NW NW - 1013,0
22:00 partly-cloudy-night Skyet 5° 0° - 8-15 m/s West West - 1012,9
23:00 partly-cloudy-night Skyet 5° 0° - 8-15 m/s West West - 1013,0
00:00 partly-cloudy-night Let skyet 5° 0° - 8-15 m/s West West - 1013,4
01:00 partly-cloudy-night Skyet 5° 0° - 8-15 m/s West West - 1013,6
02:00 cloudy Overskyet 5° 0° - 8-15 m/s West West - 1013,0
03:00 cloudy Overskyet 5° 0° - 8-15 m/s West West - 1012,6
04:00 cloudy Overskyet 5° 0° - 8-14 m/s West West - 1012,4
05:00 cloudy Overskyet 5° 0° - 8-14 m/s West West - 1012,3
06:00 cloudy Overskyet 5° 0° - 7-14 m/s West West - 1012,2
07:00 cloudy Overskyet 5° -0° - 7-13 m/s West West - 1012,4
08:00 partly-cloudy-night Skyet 4° -0° - 7-13 m/s North North - 1012,6
09:00 partly-cloudy-day Skyet 4° 0° - 6-13 m/s South South - 1013,3
10:00 partly-cloudy-day Skyet 5° 1° - 6-13 m/s WSW WSW - 1013,4
11:00 partly-cloudy-day Skyet 6° 2° - 6-12 m/s West West - 1013,7
12:00 cloudy Overskyet 7° 3° - 6-11 m/s WSW WSW - 1013,6
13:00 cloudy Overskyet 7° 3° - 7-11 m/s WSW WSW - 1013,4
14:00 partly-cloudy-day Skyet 7° 3° - 6-11 m/s WSW WSW - 1013,2
15:00 clear-day Klart 7° 3° - 6-11 m/s WSW WSW - 1012,9
16:00 clear-day Klart 6° 3° - 6-12 m/s WSW WSW - 1012,6
17:00 clear-night Klart 6° 2° 0.01 mm 6% 6-12 m/s WSW WSW - 1012,3
18:00 clear-night Klart 6° 2° 0.01 mm 6% 6-12 m/s WSW WSW - 1012,1
19:00 partly-cloudy-night Let skyet 6° 2° 0.01 mm 7% 6-12 m/s SW SW - 1012,0
20:00 partly-cloudy-night Skyet 6° 1° 0.01 mm 7% 7-12 m/s SW SW - 1011,9
21:00 partly-cloudy-night Skyet 6° 2° 0.01 mm 8% 7-12 m/s SW SW - 1011,9
22:00 cloudy Overskyet 6° 2° 0.02 mm 7% 7-12 m/s SW SW - 1011,8
23:00 cloudy Overskyet 6° 2° 0.02 mm 7% 7-12 m/s SW SW - 1011,6
00:00 cloudy Overskyet 6° 1° 0.02 mm 8% 7-12 m/s SW SW - 1011,3
01:00 cloudy Overskyet 6° 1° 0.03 mm 10% 7-12 m/s SW SW - 1011,1
02:00 cloudy Overskyet 5° 1° 0.03 mm 10% 7-12 m/s SW SW - 1010,8
03:00 cloudy Overskyet 5° 1° 0.04 mm 11% 7-11 m/s SW SW - 1010,5
04:00 cloudy Overskyet 5° 1° 0.04 mm 10% 6-11 m/s SW SW - 1010,3
05:00 cloudy Overskyet 5° 1° 0.02 mm 7% 6-11 m/s SW SW - 1010,1
06:00 cloudy Overskyet 5° 1° - 6-11 m/s SW SW - 1010,0
07:00 cloudy Overskyet 5° 1° - 6-11 m/s SW SW - 1009,6
08:00 cloudy Overskyet 5° 1° - 6-11 m/s SW SW - 1010,1
09:00 cloudy Overskyet 5° 1° 0.02 mm 7% 6-11 m/s SW SW - 1010,2
10:00 cloudy Overskyet 5° 1° 0.04 mm 10% 6-11 m/s SW SW - 1010,3
11:00 cloudy Overskyet 5° 1° 0.02 mm 8% 6-11 m/s SW SW - 1010,1
12:00 cloudy Overskyet 6° 2° - 6-11 m/s SW SW - 1009,7
13:00 cloudy Overskyet 6° 2° - 6-11 m/s SW SW - 1009,4
14:00 cloudy Overskyet 6° 3° - 6-12 m/s SW SW - 1009,1
15:00 cloudy Overskyet 7° 3° - 6-12 m/s SW SW - 1008,8
16:00 cloudy Overskyet 6° 3° 0.01 mm 12% 6-12 m/s SW SW - 1008,4
17:00 cloudy Overskyet 6° 2° 0.01 mm 13% 6-11 m/s SSW SSW - 1008,1